Weiss Lake Weather Center

Moon Phase Calendar



Weiss Lake Water Level
Online Cameras

 


      

Current Conditions in Cedar Bluff
4/12/2024 1:51:06 PM

66°F
Feels Like 64
Clear
Humidity
39%
Pressure
30.06"
Wind
18 mph (WNW)
Dew Point
40°F
UV Index
6/10 (High)
Visibility
6 mi

Hourly Forecast

Date & Time Fri, Apr 12
1:00 PM
Fri, Apr 12
2:00 PM
Fri, Apr 12
3:00 PM
Fri, Apr 12
4:00 PM
Fri, Apr 12
5:00 PM
Fri, Apr 12
6:00 PM
Fri, Apr 12
7:00 PM
Fri, Apr 12
8:00 PM
Fri, Apr 12
9:00 PM
Fri, Apr 12
10:00 PM
Fri, Apr 12
11:00 PM
Sat, Apr 13
12:00 AM
Sat, Apr 13
1:00 AM
Sat, Apr 13
2:00 AM
Sat, Apr 13
3:00 AM
Sat, Apr 13
4:00 AM
Sat, Apr 13
5:00 AM
Sat, Apr 13
6:00 AM
Sat, Apr 13
7:00 AM
Sat, Apr 13
8:00 AM
Sat, Apr 13
9:00 AM
Sat, Apr 13
10:00 AM
Sat, Apr 13
11:00 AM
Sat, Apr 13
12:00 PM
Sat, Apr 13
1:00 PM
Sat, Apr 13
2:00 PM
Sat, Apr 13
3:00 PM
Sat, Apr 13
4:00 PM
Sat, Apr 13
5:00 PM
Sat, Apr 13
6:00 PM
Sat, Apr 13
7:00 PM
Sat, Apr 13
8:00 PM
Sat, Apr 13
9:00 PM
Sat, Apr 13
10:00 PM
Sat, Apr 13
11:00 PM
Sun, Apr 14
12:00 AM
Sun, Apr 14
1:00 AM
Sun, Apr 14
2:00 AM
Sun, Apr 14
3:00 AM
Sun, Apr 14
4:00 AM
Sun, Apr 14
5:00 AM
Sun, Apr 14
6:00 AM
Sun, Apr 14
7:00 AM
Sun, Apr 14
8:00 AM
Sun, Apr 14
9:00 AM
Sun, Apr 14
10:00 AM
Sun, Apr 14
11:00 AM
Sun, Apr 14
12:00 PM
Condition
Clear

Clear

Clear

Clear

Clear

Clear

Clear

Clear

Clear

Clear

Clear

Clear

Clear

Clear

Clear

Clear

Clear

Clear

Clear

Clear

Clear

Clear

Clear

Clear

Clear

Clear

Clear

Clear

Clear

Clear

Clear

Clear

Clouds

Clear

Clouds

Clear

Clear

Clear

Clear

Clear

Clouds

Clouds

Clouds

Clouds

Clouds

Clouds

Clouds

Clouds
Temperature 66°F66°F66°F65°F64°F61°F56°F54°F51°F49°F47°F47°F46°F45°F45°F44°F44°F43°F46°F52°F58°F62°F66°F68°F70°F71°F71°F71°F70°F68°F61°F59°F58°F56°F56°F55°F54°F53°F53°F52°F52°F51°F53°F59°F64°F68°F72°F75°F
Feels Like 64°F64°F64°F64°F62°F59°F54°F52°F49°F47°F46°F45°F44°F45°F43°F43°F42°F42°F46°F50°F56°F60°F64°F66°F68°F69°F70°F70°F69°F67°F60°F58°F57°F56°F55°F54°F53°F52°F52°F52°F51°F51°F53°F58°F63°F68°F71°F74°F
Cloudiness 5%6%5%4%4%2%1%0%0%0%0%0%0%0%0%0%0%0%0%6%3%2%2%1%1%0%0%0%0%0%0%0%14%9%13%10%9%5%4%4%15%22%32%96%81%79%76%69%
Visibility 6 mi6 mi6 mi6 mi6 mi6 mi6 mi6 mi6 mi6 mi6 mi6 mi6 mi6 mi6 mi6 mi6 mi6 mi6 mi6 mi6 mi6 mi6 mi6 mi6 mi6 mi6 mi6 mi6 mi6 mi6 mi6 mi6 mi6 mi6 mi6 mi6 mi6 mi6 mi6 mi6 mi6 mi6 mi6 mi6 mi6 mi6 mi6 mi
Precipitation 0%0%0%0%0%0%0%0%0%0%0%0%0%0%0%0%0%0%0%0%0%0%0%0%0%0%0%0%0%0%0%0%0%0%0%0%0%0%0%0%0%0%0%0%0%0%0%0%
Humidity 39%39%40%41%45%50%58%61%67%75%78%80%81%82%83%84%84%85%81%68%58%49%42%41%39%39%41%44%51%62%74%77%79%82%84%88%90%92%94%94%95%95%92%82%71%63%56%51%
Dew Point 40°F40°F41°F41°F42°F42°F41°F41°F40°F41°F41°F40°F40°F40°F40°F39°F39°F39°F40°F42°F43°F43°F42°F43°F43°F44°F46°F48°F51°F54°F53°F51°F51°F50°F50°F51°F51°F50°F50°F50°F50°F50°F51°F53°F54°F55°F55°F55°F
Pressure 30.06"30.06"30.06"30.06"30.06"30.09"30.15"30.15"30.18"30.21"30.21"30.24"30.24"30.24"30.24"30.24"30.27"30.27"30.3"30.3"30.3"30.3"30.27"30.27"30.24"30.21"30.21"30.18"30.18"30.18"30.18"30.21"30.21"30.21"30.21"30.21"30.18"30.18"30.18"30.18"30.18"30.21"30.21"30.21"30.21"30.18"30.18"30.15"
Wind Speed 18.3 mph18 mph16.8 mph15.3 mph14.2 mph13.8 mph11.4 mph9.3 mph5.9 mph4.6 mph4.3 mph3.7 mph4.1 mph2.9 mph3.6 mph3.6 mph4.3 mph3.7 mph2.7 mph3.4 mph4.7 mph6.6 mph8.7 mph9.4 mph9.4 mph9.5 mph9.6 mph9 mph7.3 mph5.3 mph2.6 mph1.1 mph0.9 mph2 mph3 mph3.1 mph2.8 mph3.1 mph3.4 mph3.6 mph3.5 mph3.3 mph3.6 mph4.3 mph6 mph7.8 mph9.3 mph9.8 mph
Wind
Direction
286°
WNW
283°
WNW
287°
WNW
288°
WNW
290°
WNW
292°
WNW
294°
WNW
290°
WNW
278°
W
254°
WSW
252°
WSW
260°
W
260°
W
276°
W
261°
W
256°
WSW
264°
W
268°
W
281°
W
276°
W
282°
WNW
297°
WNW
303°
WNW
302°
WNW
299°
WNW
297°
WNW
293°
WNW
289°
WNW
283°
WNW
270°
W
274°
W
300°
WNW
229°
SW
222°
SW
220°
SW
218°
SW
207°
SSW
213°
SSW
229°
SW
232°
SW
229°
SW
219°
SW
225°
SW
221°
SW
226°
SW
229°
SW
229°
SW
224°
SW

Daily Forecast

Date High Low Precip. Humidity
Today
Apr 12

Clear
66 °F
47 °F
0%
40%
Saturday
Apr 13

Clear
71 °F
43 °F
0%
41%
Sunday
Apr 14

Clouds
79 °F
51 °F
0%
51%
Monday
Apr 15

Clouds
80 °F
55 °F
0%
56%
Tuesday
Apr 16

Clouds
80 °F
59 °F
0%
31%
Wednesday
Apr 17

Rain
74 °F
63 °F
100%
76%
Thursday
Apr 18

Rain
84 °F
63 °F
100%
56%
Friday
Apr 19

Rain
66 °F
47 °F
100%
46%
Saturday
Apr 20

Clouds
61 °F
39 °F
0%
33%
Sunday
Apr 21

Clouds
66 °F
39 °F
0%
32%
Monday
Apr 22

Rain
66 °F
44 °F
100%
44%
Tuesday
Apr 23

Clouds
73 °F
49 °F
0%
66%
Wednesday
Apr 24

Rain
79 °F
57 °F
100%
68%
Thursday
Apr 25

Clouds
75 °F
52 °F
0%
34%
Friday
Apr 26

Clouds
76 °F
48 °F
0%
41%
Saturday
Apr 27

Clouds
72 °F
58 °F
0%
48%

Temperature 8-14 Day Outlook



Precipitation 8-14 Day Outlook




Quick Links
Weiss Lake News
Weiss Lake Photos
Weiss Lake Videos




About Us
Contact Us
Site Map
Search Site
Advertise With Us
   
www.LakeWeiss.info
THE WEISS LAKE WEBSITE

Copyright 2024, Lakes Online
Privacy    |    Legal